Location: East Irvine
(33.6759°N, 117.7598°W)
Time: 01:40:34
(UTC+00:00)

Cosmos 2151 Rocket - Pass Details

Date: 15 November 2025
Orbit: 612 x 636 km, 82.5° (Epoch: 07 December)

Event Time Altitude Azimuth Distance (km) Brightness Sun altitude
Rises 02:18:18 0° 186° (S) 2,902 7.2 -18.8°
Reaches altitude 10° 02:20:31 10° 186° (S) 2,002 6.4 -19.3°
Maximum altitude 02:24:58 88° 275° (W) 638 3.5 -20.2°
Drops below altitude 10° 02:29:28 10° 6° (N) 2,025 6.0 -21.1°
Enters shadow 02:29:40 - 6° (N) 2,109 6.1 -21.1°
